RCH231 KNPA-KNFL

Flight info

Callsign RCH231
Flight time N/A
Altitude 28000
Route SJI EIC J20 IRW J98 MMB ALS/N0490F300 MLF J58 ILC J198 MVA
Aircraft B752/M-SDE2E3FGHIJ3J4J7RWXY/LB1

Departure

Time 2026-05-04 21:14
Airport Naval Air Station Pensacola Forrest Sherman Field (KNPA)

Arrival

Time N/A
Airport Fallon Naval Air Station (KNFL)
Time Latitude Longitude Altitude Speed Heading
2026-05-04 20:59 30.35097 -87.31137 40 ft 0 kts 243°
2026-05-04 21:06 30.35096 -87.31139 40 ft 2 kts 243°
2026-05-04 21:06 30.35097 -87.31153 40 ft 2 kts 302°
2026-05-04 21:06 30.35115 -87.31166 40 ft 4 kts 338°
2026-05-04 21:06 30.35151 -87.31182 40 ft 7 kts 338°
2026-05-04 21:07 30.35200 -87.31206 40 ft 7 kts 328°
2026-05-04 21:07 30.35205 -87.31263 40 ft 9 kts 248°
2026-05-04 21:07 30.35179 -87.31339 40 ft 11 kts 248°
2026-05-04 21:07 30.35146 -87.31434 40 ft 14 kts 248°
2026-05-04 21:08 30.35107 -87.31547 40 ft 16 kts 248°
2026-05-04 21:08 30.35069 -87.31652 40 ft 9 kts 247°
2026-05-04 21:08 30.35091 -87.31708 40 ft 10 kts 340°
2026-05-04 21:08 30.35154 -87.31762 40 ft 13 kts 312°
2026-05-04 21:09 30.35211 -87.31835 40 ft 9 kts 311°
2026-05-04 21:09 30.35277 -87.31861 40 ft 12 kts
2026-05-04 21:09 30.35368 -87.31851 40 ft 14 kts
2026-05-04 21:09 30.35477 -87.31834 40 ft 17 kts
2026-05-04 21:10 30.35603 -87.31818 40 ft 19 kts
2026-05-04 21:10 30.35733 -87.31802 40 ft 18 kts
2026-05-04 21:10 30.35852 -87.31787 40 ft 17 kts
2026-05-04 21:10 30.35961 -87.31774 40 ft 15 kts
2026-05-04 21:11 30.36058 -87.31760 40 ft 9 kts
2026-05-04 21:11 30.36112 -87.31766 40 ft 7 kts 320°
2026-05-04 21:11 30.36123 -87.31810 40 ft 5 kts 277°
2026-05-04 21:11 30.36127 -87.31850 40 ft 5 kts 276°
2026-05-04 21:12 30.36130 -87.31888 40 ft 5 kts 276°
2026-05-04 21:12 30.36123 -87.31913 40 ft 2 kts 207°
2026-05-04 21:12 30.36113 -87.31915 40 ft 1 kts 187°
2026-05-04 21:12 30.36111 -87.31916 40 ft 2 kts 186°
2026-05-04 21:13 30.35916 -87.31940 40 ft 56 kts 186°
2026-05-04 21:13 30.35341 -87.32013 40 ft 111 kts 186°
2026-05-04 21:13 30.34393 -87.32133 43 ft 163 kts 186°
2026-05-04 21:13 30.33175 -87.32284 461 ft 191 kts 186°
2026-05-04 21:14 30.31783 -87.32431 1142 ft 209 kts 185°
2026-05-04 21:14 30.30333 -87.32555 1730 ft 204 kts 184°
2026-05-04 21:14 30.28904 -87.32712 2334 ft 210 kts 186°
2026-05-04 21:14 30.27441 -87.32971 2926 ft 214 kts 191°
2026-05-04 21:15 30.26127 -87.33810 3490 ft 225 kts 222°
2026-05-04 21:15 30.25417 -87.35448 4108 ft 237 kts 256°
2026-05-04 21:15 30.25561 -87.37357 4749 ft 243 kts 283°
2026-05-04 21:15 30.26176 -87.39199 5380 ft 247 kts 293°
2026-05-04 21:16 30.26932 -87.41035 5975 ft 261 kts 295°
2026-05-04 21:16 30.27772 -87.42920 6580 ft 266 kts 298°
2026-05-04 21:16 30.28381 -87.44165 6985 ft 270 kts 299°
2026-05-04 21:16 30.29129 -87.45677 7467 ft 273 kts 299°
2026-05-04 21:17 30.30203 -87.47869 8158 ft 277 kts 298°
2026-05-04 21:17 30.31156 -87.49818 8756 ft 280 kts 298°
2026-05-04 21:17 30.32120 -87.51785 9360 ft 282 kts 298°
2026-05-04 21:17 30.33095 -87.53769 9965 ft 284 kts 298°
2026-05-04 21:18 30.34079 -87.55783 10575 ft 291 kts 298°
2026-05-04 21:18 30.35089 -87.57860 11185 ft 310 kts 298°
2026-05-04 21:18 30.36178 -87.60104 11803 ft 328 kts 298°
2026-05-04 21:18 30.37312 -87.62446 12411 ft 337 kts 298°
2026-05-04 21:19 30.38463 -87.64829 13016 ft 339 kts 298°
2026-05-04 21:19 30.39617 -87.67220 13620 ft 342 kts 298°
2026-05-04 21:19 30.40783 -87.69634 14223 ft 344 kts 298°
2026-05-04 21:19 30.41959 -87.72064 14827 ft 346 kts 297°
2026-05-04 21:20 30.43140 -87.74498 15429 ft 347 kts 297°
2026-05-04 21:20 30.44329 -87.76941 16032 ft 349 kts 297°
2026-05-04 21:20 30.45120 -87.78570 16432 ft 350 kts 297°
2026-05-04 21:20 30.45974 -87.80336 16863 ft 350 kts 297°
2026-05-04 21:21 30.46288 -87.80987 17023 ft 351 kts 297°
2026-05-04 21:21 30.47480 -87.83463 17625 ft 352 kts 297°
2026-05-04 21:21 30.48674 -87.85948 18227 ft 353 kts 297°
2026-05-04 21:21 30.49875 -87.88449 18831 ft 354 kts 297°
2026-05-04 21:22 30.51077 -87.90954 19434 ft 356 kts 297°
2026-05-04 21:22 30.52282 -87.93464 20036 ft 357 kts 297°
2026-05-04 21:22 30.53493 -87.95986 20638 ft 358 kts 297°
2026-05-04 21:22 30.54706 -87.98515 21238 ft 360 kts 297°
2026-05-04 21:23 30.55929 -88.01061 21805 ft 362 kts 297°
2026-05-04 21:23 30.57154 -88.03617 22359 ft 363 kts 297°
2026-05-04 21:23 30.58384 -88.06184 22912 ft 364 kts 297°
2026-05-04 21:23 30.59612 -88.08753 23463 ft 365 kts 297°
2026-05-04 21:24 30.60850 -88.11333 24008 ft 366 kts 297°
2026-05-04 21:24 30.61253 -88.12172 24177 ft 367 kts 297°
2026-05-04 21:24 30.64481 -88.18907 25482 ft 371 kts 297°
2026-05-04 21:25 30.65741 -88.21538 25985 ft 372 kts 297°
2026-05-04 21:25 30.67003 -88.24178 26487 ft 373 kts 297°
2026-05-04 21:25 30.68263 -88.26816 26989 ft 374 kts 297°
2026-05-04 21:25 30.69527 -88.29465 27490 ft 375 kts 297°
2026-05-04 21:26 30.70795 -88.32121 27961 ft 377 kts 297°
2026-05-04 21:26 30.72065 -88.34787 28416 ft 378 kts 297°
2026-05-04 21:26 30.73281 -88.37498 28870 ft 378 kts 295°
2026-05-04 21:26 30.74394 -88.40224 29318 ft 378 kts 294°
2026-05-04 21:27 30.75503 -88.43000 29770 ft 379 kts 294°
2026-05-04 21:27 30.76615 -88.45773 30221 ft 379 kts 294°
2026-05-04 21:27 30.77732 -88.48547 30672 ft 378 kts 294°
2026-05-04 21:27 30.78844 -88.51315 31122 ft 377 kts 294°
2026-05-04 21:28 30.79947 -88.54075 31573 ft 375 kts 294°
2026-05-04 21:28 30.81049 -88.56825 32023 ft 373 kts 295°
2026-05-04 21:28 30.82144 -88.59549 32472 ft 371 kts 295°
2026-05-04 21:28 30.83238 -88.62260 32922 ft 368 kts 295°
2026-05-04 21:29 30.84323 -88.64949 33372 ft 365 kts 295°
2026-05-04 21:29 30.85397 -88.67620 33799 ft 362 kts 295°
2026-05-04 21:29 30.86450 -88.70257 33998 ft 365 kts 295°
2026-05-04 21:29 30.87528 -88.72966 34056 ft 371 kts 295°
2026-05-04 21:30 30.89729 -88.78480 34053 ft 365 kts 296°
2026-05-04 21:30 30.90764 -88.81063 34045 ft 340 kts 296°
2026-05-04 21:30 30.91743 -88.83506 34045 ft 330 kts 296°
2026-05-04 21:31 30.94713 -88.90946 34052 ft 347 kts 296°
2026-05-04 21:32 30.96769 -88.96114 34051 ft 359 kts 296°
2026-05-04 21:32 30.98895 -89.01465 34048 ft 366 kts 296°
2026-05-04 21:33 31.01034 -89.06857 34046 ft 367 kts 296°
2026-05-04 21:33 31.03174 -89.12257 34045 ft 366 kts 296°
2026-05-04 21:34 31.05309 -89.17651 34044 ft 366 kts 296°
2026-05-04 21:34 31.06737 -89.21265 34042 ft 366 kts 296°
2026-05-04 21:35 31.08869 -89.26647 34042 ft 365 kts 296°
2026-05-04 21:35 31.10991 -89.32021 34043 ft 365 kts 296°
2026-05-04 21:36 31.13112 -89.37400 34031 ft 364 kts 296°
2026-05-04 21:36 31.15211 -89.42730 34039 ft 363 kts 296°
2026-05-04 21:37 31.17317 -89.48099 34052 ft 363 kts 296°
2026-05-04 21:37 31.19423 -89.53467 34044 ft 363 kts 296°
2026-05-04 21:38 31.21523 -89.58831 34044 ft 363 kts 296°
2026-05-04 21:38 31.23629 -89.64182 34050 ft 362 kts 296°
2026-05-04 21:39 31.25742 -89.69541 34051 ft 362 kts 296°
2026-05-04 21:39 31.27839 -89.74901 34049 ft 362 kts 296°
2026-05-04 21:40 31.29918 -89.80240 34047 ft 362 kts 296°
2026-05-04 21:40 31.32002 -89.85608 34047 ft 362 kts 296°
2026-05-04 21:41 31.34082 -89.90973 34045 ft 362 kts 296°
2026-05-04 21:41 31.36160 -89.96342 34047 ft 362 kts 296°
2026-05-04 21:42 31.37886 -90.00809 34044 ft 362 kts 296°
2026-05-04 21:42 31.40296 -90.07046 34042 ft 361 kts 296°
2026-05-04 21:43 31.42024 -90.11533 34041 ft 360 kts 296°
2026-05-04 21:43 31.44069 -90.16848 34041 ft 360 kts 296°
2026-05-04 21:44 31.46124 -90.22198 34039 ft 360 kts 296°
2026-05-04 21:44 31.48175 -90.27545 34039 ft 360 kts 295°
2026-05-04 21:45 31.50222 -90.32889 34039 ft 360 kts 295°
2026-05-04 21:45 31.52270 -90.38243 34038 ft 359 kts 295°
2026-05-04 21:46 31.54314 -90.43587 34037 ft 359 kts 296°
2026-05-04 21:46 31.56348 -90.48902 34038 ft 359 kts 296°
2026-05-04 21:47 31.58386 -90.54244 34031 ft 358 kts 296°
2026-05-04 21:47 31.60416 -90.59583 34037 ft 358 kts 296°
2026-05-04 21:48 31.62445 -90.64931 34037 ft 358 kts 296°
2026-05-04 21:48 31.64468 -90.70262 34032 ft 357 kts 296°
2026-05-04 21:49 31.66492 -90.75599 34033 ft 357 kts 296°
2026-05-04 21:49 31.68498 -90.80892 34053 ft 356 kts 296°
2026-05-04 21:50 31.70512 -90.86206 34033 ft 356 kts 296°
2026-05-04 21:50 31.72516 -90.91533 34022 ft 355 kts 296°
2026-05-04 21:51 31.74500 -90.96802 34029 ft 354 kts 296°
2026-05-04 21:51 31.76487 -91.02096 34012 ft 354 kts 296°
2026-05-04 21:52 31.78472 -91.07380 34027 ft 353 kts 296°
2026-05-04 21:52 31.80456 -91.12643 34027 ft 352 kts 296°
2026-05-04 21:53 31.82431 -91.17910 34034 ft 351 kts 296°
2026-05-04 21:53 31.84392 -91.23165 34032 ft 351 kts 296°
2026-05-04 21:54 31.86339 -91.28387 34018 ft 350 kts 296°
2026-05-04 21:54 31.88291 -91.33618 34025 ft 349 kts 296°
2026-05-04 21:55 31.90237 -91.38836 34025 ft 348 kts 296°
2026-05-04 21:55 31.92183 -91.44055 34032 ft 347 kts 296°
2026-05-04 21:56 31.94119 -91.49257 34007 ft 347 kts 296°
2026-05-04 21:56 31.96044 -91.54463 34014 ft 346 kts 296°
2026-05-04 21:57 31.97944 -91.59621 34008 ft 345 kts 296°
2026-05-04 21:57 31.99851 -91.64807 34035 ft 344 kts 296°
2026-05-04 21:58 32.01772 -91.69994 33972 ft 345 kts 296°
2026-05-04 21:58 32.03673 -91.75143 33973 ft 343 kts 296°
2026-05-04 21:59 32.07379 -91.85215 34025 ft 337 kts 296°
2026-05-04 22:00 32.09240 -91.90295 33721 ft 338 kts 296°
2026-05-04 22:00 32.10171 -91.92837 33425 ft 337 kts 296°
2026-05-04 22:00 32.11101 -91.95374 33094 ft 338 kts 295°
2026-05-04 22:00 32.12035 -91.97926 32702 ft 339 kts 295°
2026-05-04 22:01 32.12971 -92.00481 32436 ft 340 kts 295°
2026-05-04 22:01 32.13907 -92.03047 32169 ft 343 kts 295°
2026-05-04 22:01 32.14849 -92.05645 31850 ft 346 kts 294°
2026-05-04 22:01 32.15802 -92.08270 31502 ft 349 kts 294°
2026-05-04 22:02 32.16767 -92.10910 31153 ft 352 kts 294°
2026-05-04 22:02 32.17726 -92.13546 30807 ft 356 kts 294°
2026-05-04 22:02 32.18705 -92.16246 30457 ft 359 kts 293°
2026-05-04 22:02 32.19700 -92.18970 30108 ft 363 kts 293°
2026-05-04 22:03 32.20703 -92.21736 29758 ft 367 kts 293°
2026-05-04 22:03 32.21713 -92.24534 29408 ft 372 kts 293°
2026-05-04 22:03 32.22736 -92.27358 29060 ft 376 kts 293°
2026-05-04 22:03 32.23771 -92.30216 28710 ft 380 kts 293°
2026-05-04 22:04 32.24813 -92.33100 28361 ft 383 kts 293°
2026-05-04 22:04 32.25848 -92.35966 28130 ft 385 kts 293°
2026-05-04 22:04 32.26903 -92.38890 28022 ft 389 kts 293°
2026-05-04 22:04 32.27968 -92.41845 27976 ft 392 kts 293°
2026-05-04 22:05 32.29038 -92.44818 27969 ft 394 kts 293°
2026-05-04 22:05 32.30114 -92.47809 27969 ft 396 kts 293°
2026-05-04 22:05 32.31192 -92.50812 27968 ft 397 kts 293°
2026-05-04 22:05 32.32270 -92.53818 27966 ft 398 kts 293°
2026-05-04 22:06 32.33355 -92.56841 27965 ft 399 kts 293°
2026-05-04 22:06 32.34440 -92.59865 27963 ft 399 kts 293°
2026-05-04 22:06 32.35524 -92.62889 27961 ft 399 kts 293°
2026-05-04 22:06 32.36608 -92.65912 27960 ft 399 kts 293°
2026-05-04 22:07 32.37681 -92.68903 27960 ft 399 kts 293°
2026-05-04 22:07 32.38763 -92.71929 27960 ft 400 kts 293°
2026-05-04 22:07 32.39845 -92.74958 27960 ft 400 kts 293°
2026-05-04 22:07 32.40927 -92.77989 27960 ft 400 kts 293°
2026-05-04 22:08 32.42009 -92.81016 27959 ft 399 kts 293°
2026-05-04 22:08 32.43091 -92.84045 27959 ft 399 kts 293°
2026-05-04 22:08 32.44173 -92.87074 27959 ft 399 kts 293°
2026-05-04 22:08 32.45259 -92.90118 27959 ft 399 kts 293°
2026-05-04 22:09 32.46324 -92.93110 27958 ft 399 kts 293°
2026-05-04 22:09 32.47417 -92.96180 27958 ft 399 kts 293°
2026-05-04 22:09 32.48482 -92.99171 27957 ft 399 kts 293°
2026-05-04 22:09 32.49561 -93.02199 27956 ft 399 kts 293°
2026-05-04 22:10 32.50642 -93.05229 27955 ft 399 kts 293°
2026-05-04 22:10 32.51717 -93.08255 27952 ft 399 kts 293°
2026-05-04 22:10 32.52788 -93.11281 27950 ft 398 kts 293°
2026-05-04 22:10 32.53860 -93.14313 27949 ft 398 kts 293°
2026-05-04 22:11 32.54931 -93.17341 27949 ft 398 kts 293°
2026-05-04 22:11 32.55999 -93.20372 27944 ft 398 kts 293°
2026-05-04 22:11 32.57067 -93.23404 27939 ft 398 kts 293°
2026-05-04 22:11 32.58133 -93.26439 27938 ft 398 kts 293°
2026-05-04 22:12 32.59197 -93.29468 27938 ft 398 kts 293°
2026-05-04 22:12 32.60258 -93.32497 27938 ft 398 kts 293°
2026-05-04 22:12 32.61321 -93.35531 27938 ft 398 kts 293°
2026-05-04 22:12 32.62381 -93.38560 27938 ft 398 kts 293°
2026-05-04 22:13 32.63440 -93.41588 27937 ft 397 kts 293°
2026-05-04 22:13 32.64498 -93.44618 27936 ft 397 kts 293°
2026-05-04 22:13 32.65555 -93.47647 27933 ft 397 kts 293°